Volver al catálogo

SL-8 DEB

ActivoLEO
NORAD 21174·DEBRIS·🇷🇺 Russia

Lanzado Feb 12, 1991 desde Plesetsk Cosmodrome

Loading…

Próximos Pases (próximas 24 horas)

TLE

ActualizadoSource: Space-Track

Época: Sep 14, 2026, 07:42 UTC

1 21174U 91009AM  26257.32103334  .00000060  00000-0  80105-3 0  9998
2 21174  74.0914  28.7889 0277310  95.6720 291.3124 11.99437263555195

Sigue SL-8 DEB en tiempo real con AllMySat

Download on the App Store